Regional Weather Roundup
Issued by NWS Austin/San Antonio, TX

Home | Current Version | Previous Version | Text Only | Print | Product List | Glossary On
Versions: 1 2 3 4 5 6 7 8 9 10 11 12 13 14 15 16 17 18 19 20 21 22 23 24 25 26 27 28 29 30 31 32 33 34 35 36 37 38 39 40 41 42 43 44 45 46 47 48 49 50
000
ASUS44 KEWX 202202
RWREWX
SOUTH TEXAS REGIONAL WEATHER ROUNDUP
NATIONAL WEATHER SERVICE AUSTIN/SAN ANTONIO TX
500 PM CDT TUE AUG 20 2019

NOTE: "FAIR" INDICATED FEW OR NO CLOUDS BELOW 12,000 FEET WITH NO
SIGNIFICANT WEATHER AND/OR OBSTRUCTIONS TO VISIBILITY.

* - THESE STATIONS ARE NOT NWS OR FAA STATIONS...AND ARE NOT SUBJECT
    TO NWS AND FAA QUALITY CONTROL.

TXZ171-172-183>190-202300-
TEXAS HILL COUNTRY AND EDWARDS PLATEAU

CITY           SKY/WX    TMP DP  RH WIND       PRES   REMARKS
JUNCTION       PTSUNNY   99  62  29 VRB6      29.99F HX 100
*LLANO         MOSUNNY  102  63  27 S8        30.00F HX 104
BURNET         MOSUNNY   98  63  31 VRB7      30.01F HX 100
*HORSESHOE BAY MOSUNNY   99  61  28 SE6       29.99F HX  99
*KERRVILLE     PTSUNNY   97  63  32 S10       30.02S HX  98
*FREDERICKSBRG SUNNY     96  57  27 S7        30.02F HX  94
*ROCKSPRINGS   MOSUNNY   91  61  35 S10G18    30.09F HX  91
*BOERNE        PTSUNNY   93  63  36 S10       30.02S HX  94
*CASTROVILLE   SUNNY     99  55  22 SE9       29.98F HX  97
HONDO          SUNNY     98  61  29 S13       29.97F HX  98
*UVALDE        SUNNY     98  61  28 E9G21     29.96S HX  99
DEL RIO        MOSUNNY   99  63  30 E14G23    29.91F HX 101
LAUGHLIN AFB   MOSUNNY   99  62  29 SE13G24   29.93F HX 100
SPOFFORD       MOSUNNY  100  60  26 SE10G17   29.87F HX 100
*EAGLE PASS    MOSUNNY  104  57  21 SE13      29.92F HX 103
CARRIZO SPRGS  MOSUNNY  100  61  27 E13       29.90F HX 101
$$

TXZ173-191>194-202-209-217>225-228-202300-
CENTRAL AND SOUTH CENTRAL TEXAS

CITY           SKY/WX    TMP DP  RH WIND       PRES   REMARKS
GEORGETOWN     MOSUNNY   98  66  34 VRB5      29.98F HX 101
AUSTIN/BERGSTM MOSUNNY   98  65  33 S6        29.95F HX 101
AUSTIN/MABRY   SUNNY    102  62  26 MISG      29.97F HX 104
*AUSTIN/EXEC   PTSUNNY   97  64  34 S6        29.97F HX  99
*LAGO VISTA    SUNNY     96  65  36 SE7       30.00F HX  99
SAN MARCOS     SUNNY     99  67  35 S9        29.97F HX 103
NEW BRAUNFELS  MOSUNNY  100  64  30 S8        29.95F HX 102
RANDOLPH AFB   SUNNY     98  64  32 E8        29.97F HX 100
SEGUIN         SUNNY     97  63  32 SW6       29.99F HX  99
KELLY FIELD    SUNNY    100  62  28 E9        29.95S HX 100
SAN ANTONIO    MOSUNNY   97  61  30 S6        29.97F HX  97
STINSON FIELD  SUNNY    101  60  25 SE8       29.94F HX 101
PLEASANTON     SUNNY     99  60  26 S7        29.94F HX  99
*LA GRANGE     SUNNY     94  71  47 S13G21    29.95F HX 100
*GIDDINGS      MOSUNNY  100  72  40 SE9       29.98S HX 109
*GONZALES      SUNNY     99  70  39 SE16G22   29.96F HX 106
$$

TXZ163>164-176>182-195>201-210>213-226-227-235-202300-
SOUTHEAST TEXAS

CITY           SKY/WX    TMP DP  RH WIND       PRES   REMARKS
COLLEGE STN    SUNNY     92  74  55 SE21G28   29.98S HX 101
*BRYAN         MOSUNNY   94  75  53 SE20      29.99R HX 105
*CALDWELL      MOSUNNY   93  71  48 S16G22    29.96F HX 100
*CROCKETT      MOSUNNY   99  72  41 S6        29.99F HX 107
*BRENHAM       MOSUNNY   87  74  66 SE9G17    29.99F HX  95
HUNTSVILLE     SUNNY     80  76  87 SW7       30.00F
CONROE         MOSUNNY   90  73  57 S12       30.01S HX  98
HOUSTON BUSH   PTSUNNY   89  71  55 S6        30.00F HX  95
HOUSTON HOBBY  PTSUNNY   90  73  57 S8        29.99F HX  98
*HOUSTON SW AP FAIR      89  73  60 S6        30.02F HX  97
PEARLAND       FAIR      89  72  56 S7        30.02F HX  96
HOUSTON HOOKS  PTSUNNY   85  72  65 S6        30.01F HX  91
ELLINGTON FLD  PTSUNNY   88  73  62 SE8       29.99F HX  96
SUGAR LAND     FAIR      90  76  63 S7        30.00F HX 101
*HOUSTON EXEC  FAIR      86  75  70 S5        30.01F HX  95
*CLEVELAND MUN FAIR      90  78  67 S12       30.02S HX 104
*WHARTON       PTSUNNY   88  70  55 SE9       30.01F HX  93
*COLUMBUS      CLOUDY    84  72  66 S7        30.00F HX  90
*EAGLE LAKE    PTSUNNY   88  75  66 S6        29.99F HX  97
$$

TXZ214>216-236>238-202300-
THE UPPER TEXAS COAST

CITY           SKY/WX    TMP DP  RH WIND       PRES   REMARKS
*ORANGE        FAIR      87  79  76 SW5       30.03F HX 102
PORT ARTHUR    FAIR      85  77  77 S6        30.01F HX  95
GALVESTON      FAIR      85  72  65 CALM      30.02F HX  91
ANGLETON       FAIR      88  75  65 S6        30.01F HX  97
*BAY CITY      SUNNY     89  80  75 SE6       30.01F HX 105
PALACIOS       SUNNY     92  73  53 SE13      29.99F HX 100
$$

TXZ229>234-239>247-202300-
TEXAS COASTAL BEND AND RIO GRANDE PLAINS

CITY           SKY/WX    TMP DP  RH WIND       PRES   REMARKS
VICTORIA       PTSUNNY   96  66  37 S14       29.97S HX  99
*BEEVILLE      NOT AVBL
ROCKPORT       SUNNY     90  75  61 SE14      29.98S HX 100
*PORT ARANSAS  SUNNY     89  78  70 SE13      29.99F HX 102
*PORT LAVACA   SUNNY     94  71  47 SE10      29.99S HX 102
*INGLESIDE     NOT AVBL
CORPUS CHRISTI PTSUNNY   95  71  45 SE17G23   29.96S HX 102
CORPUS NAS     MOSUNNY   91  78  65 SE17      29.97F HX 106
*ROBSTOWN      SUNNY     96  70  42 SE20      29.96S HX 101
ALICE          SUNNY     99  67  35 SE15G22   29.93S HX 103
KINGSVILLE NAS PTSUNNY   96  71  44 SE16G25   29.95S HX 103
COTULLA        MOSUNNY  102  54  20 SE9G20    29.91F HX 100
LAREDO         SUNNY    103  58  22 SE15      29.90F HX 102
$$

TXZ248>255-202300-
DEEP SOUTH TEXAS

CITY           SKY/WX    TMP DP  RH WIND       PRES   REMARKS
BROWNSVILLE    FAIR      95  74  50 SE16G25   29.95F HX 105
PORT ISABEL    FAIR      91  74  57 E20       29.95F HX 100
HARLINGEN      MOSUNNY   95  72  47 E23       29.93S HX 103
*HEBBRONVILLE  MOSUNNY   99  55  22 CALM      29.94F HX  97
MCALLEN        MOSUNNY   99  68  36 E18G25    29.92S HX 104
*WESLACO       CLOUDY    95  69  42 SE18      29.92S HX 100
FALFURRIAS     SUNNY    100  69  35 SE15G21   29.93S HX 106
EDINBURG       CLOUDY   100  65  30 SE21      29.92F HX 103
*ZAPATA        FAIR     102  55  20 SE12G18   29.90F HX 100
$$

TXZ213>215-236>238-242>244-246-247-251-254-255-202300-
CMAN STATIONS

STATION/POSITION TIME  TEMP    WIND        PRES    WAVE
                       AIR SEA DIR/SP/G            HT/PER
                 (UTC) (F)     (DEG/KT/KT) (MB)    (FT/S)
SABINE PASS      2124   86 89  210/  6/ 12 1018.5
NORTH JETTY/GLS  2124   82 88  210/ 12/ 14 1016.0
EAGLE POINT      2124   82 89  170/ 11/ 15 1016.0
MORGANS POINT    2124   85 89  160/  8/ 10 1016.7
PORT O`CONNOR    2124   86 89  130/  9/ 11 1015.5
PORT ARANSAS     2100   84 87  110/ 10/ 11 1015.6
MALAQUITE BEACH  2118   90 85   90/ 10/ 11 1014.9
BAFFIN BAY       2118   86 91   90/ 13/ 16 1014.8
PORT ISABEL      2118   86 86  110/ 13/ 16 1015.1
$$



USA.gov is the U.S. government's official web portal to all federal, state and local government web resources and services.